TimeEST,TemperatureF,Dew PointF,Humidity,Sea Level PressureIn,VisibilityMPH,Wind Direction,Wind SpeedMPH,Gust SpeedMPH,PrecipitationIn,Events,Conditions,WindDirDegrees,DateUTC
12:51 AM,37.0,25.0,62,30.27,10.0,SSW,10.4,-,N/A,,Clear,210,2013-02-19 05:51:00
1:51 AM,35.1,25.0,67,30.25,10.0,South,9.2,-,N/A,,Clear,190,2013-02-19 06:51:00
2:51 AM,37.0,25.0,62,30.21,10.0,SSW,12.7,-,N/A,,Clear,200,2013-02-19 07:51:00
3:51 AM,36.0,26.1,67,30.20,10.0,SSW,10.4,-,N/A,,Clear,210,2013-02-19 08:51:00
4:51 AM,35.1,27.0,72,30.19,10.0,South,8.1,-,N/A,,Clear,190,2013-02-19 09:51:00
5:51 AM,37.0,28.9,73,30.15,10.0,South,9.2,-,N/A,,Clear,180,2013-02-19 10:51:00
6:51 AM,39.0,32.0,76,30.13,10.0,South,8.1,-,N/A,,Clear,180,2013-02-19 11:51:00
7:51 AM,44.1,36.0,73,30.12,10.0,South,10.4,-,N/A,,Clear,190,2013-02-19 12:51:00
8:51 AM,51.1,39.0,63,30.10,10.0,South,16.1,-,N/A,,Clear,190,2013-02-19 13:51:00
9:51 AM,53.1,39.9,61,30.08,10.0,South,11.5,-,N/A,,Partly Cloudy,190,2013-02-19 14:51:00
10:51 AM,57.9,42.1,56,30.05,10.0,South,17.3,25.3,N/A,,Mostly Cloudy,190,2013-02-19 15:51:00
11:51 AM,60.1,44.1,55,30.00,10.0,South,15.0,24.2,N/A,,Clear,190,2013-02-19 16:51:00
1:51 PM,57.9,48.9,72,29.91,10.0,SSW,16.1,27.6,0.00,Rain,Light Rain,210,2013-02-19 18:51:00
2:51 PM,57.0,52.0,83,29.86,10.0,SSW,15.0,25.3,0.02,,Overcast,200,2013-02-19 19:51:00
3:51 PM,57.0,52.0,83,29.83,10.0,SSW,17.3,25.3,N/A,,Overcast,200,2013-02-19 20:51:00
4:51 PM,57.0,51.1,81,29.80,10.0,SSW,20.7,-,N/A,,Overcast,210,2013-02-19 21:51:00
5:51 PM,55.9,48.9,77,29.79,10.0,SSW,18.4,29.9,N/A,,Overcast,210,2013-02-19 22:51:00
6:27 PM,55.4,48.2,77,29.80,10.0,SW,18.4,25.3,N/A,,Overcast,230,2013-02-19 23:27:00
7:51 PM,53.1,48.9,86,29.83,10.0,West,12.7,21.9,0.03,,Overcast,260,2013-02-20 00:51:00
8:51 PM,51.1,46.9,86,29.84,10.0,West,8.1,-,N/A,,Scattered Clouds,260,2013-02-20 01:51:00
10:51 PM,48.9,42.1,77,29.86,10.0,WSW,9.2,17.3,N/A,,Clear,250,2013-02-20 03:51:00
11:51 PM,46.9,39.0,74,29.87,10.0,West,9.2,18.4,N/A,,Clear,270,2013-02-20 04:51:00